Location: Newark
(48.1500°N, 2.9667°W)
Time: 04:48:55
(UTC+00:00)

Transit 2A - Pass Details

Date: 02 February 2020
Orbit: 600 x 959 km, 66.7° (Epoch: 16 February)

Event Time Altitude Azimuth Distance (km) Brightness Sun altitude
Rises 01:57:59 0° 328° (NNW) 2,966 - -53.6°
Reaches altitude 10° 02:00:18 10° 336° (NNW) 2,094 - -53.3°
Maximum altitude 02:04:49 43° 48° (NE) 997 - -52.8°
Drops below altitude 10° 02:09:45 10° 119° (ESE) 2,290 - -52.3°
Sets 02:12:23 0° 126° (SE) 3,277 - -52.0°
